This demonstration page uses our WeatherBlox Daily Observations layout. Learn more.

Left ArrowRight Arrow

Hourly Observations for May 7, 2019

Temp ( °F °C ) Dew Point ( °F °C ) Humidity (%) Winds ( mph kmh ) Pressure ( in mb ) Visibility ( mi km ) Precip ( " mm )
12:15 am 00:15 Cloudy with Nearby Thunderstorms 48 8.8 48 8.8 100 100 NE 20 31 30.08 1019 7 11 N/A
12:35 am 00:35 Cloudy 48 8.8 47 8.6 99 99 NE 16 26 30.10 1019 10 16 N/A
12:55 am 00:55 Cloudy 48 8.8 47 8.5 98 98 NE 14 22 30.11 1020 10 16 N/A
1:15 am 01:15 Cloudy 48 8.8 47 8.5 98 98 NE 14 22 30.12 1020 10 16 N/A
1:35 am 01:35 Cloudy with Nearby Thunderstorms 48 8.8 47 8.3 97 97 NE 14 22 30.13 1020 10 16 N/A
1:55 am 01:55 Cloudy 48 8.8 47 8.3 97 97 NE 15 24 30.12 1020 10 16 N/A
2:15 am 02:15 Cloudy 47 8.6 47 8.2 97 97 NE 14 22 30.13 1020 7 11 N/A
2:35 am 02:35 Cloudy with Light Rain 47 8.6 47 8.5 99 99 NNE 13 20 30.12 1020 5 8 N/A
2:55 am 02:55 Cloudy with Light Rain 47 8.5 47 8.4 99 99 NE 14 22 30.11 1020 7 11 0.01 0.25
3:15 am 03:15 Cloudy 47 8.5 47 8.3 99 99 ENE 17 28 30.11 1020 7 11 N/A
3:35 am 03:35 Cloudy 47 8.5 47 8.1 97 97 NE 15 24 30.11 1020 10 16 N/A
3:55 am 03:55 Cloudy 47 8.3 46 7.7 96 96 NE 17 28 30.09 1019 10 16 N/A
4:15 am 04:15 Cloudy 46 8 45 7.2 95 95 NE 22 35 30.09 1019 10 16 N/A
4:35 am 04:35 Cloudy 46 8 44 6.5 90 90 NE 20 31 30.10 1019 10 16 N/A
4:55 am 04:55 Cloudy 46 7.7 44 6.5 92 92 NE 18 30 30.09 1019 10 16 N/A
5:15 am 05:15 Cloudy 46 7.5 44 6.5 93 93 NE 18 30 30.10 1019 10 16 N/A
5:35 am 05:35 Cloudy 45 7.1 43 5.9 92 92 NE 20 31 30.11 1020 10 16 N/A
5:55 am 05:55 Cloudy 44 6.7 42 5.4 92 92 ENE 18 30 30.11 1020 10 16 N/A
6:15 am 06:15 Cloudy 44 6.5 41 5.2 92 92 NE 20 31 30.11 1020 10 16 N/A
6:35 am 06:35 Cloudy 43 6 41 5 93 93 NE 21 33 30.13 1020 10 16 N/A
6:55 am 06:55 Cloudy 42 5.8 41 5 95 95 ENE 16 26 30.16 1021 10 16 N/A
7:15 am 07:15 Cloudy 42 5.8 41 5.2 96 96 ENE 13 20 30.17 1022 10 16 N/A
7:35 am 07:35 Cloudy 42 5.8 42 5.3 97 97 ENE 13 20 30.18 1022 10 16 N/A
7:55 am 07:55 Cloudy 42 5.8 42 5.5 98 98 ENE 14 22 30.19 1022 10 16 N/A
8:15 am 08:15 Cloudy 43 6 42 5.6 97 97 ENE 13 20 30.21 1023 7 11 N/A
8:35 am 08:35 Cloudy with Mist and Fog 42 5.8 42 5.7 99 99 ENE 14 22 30.20 1023 3 4 N/A
8:55 am 08:55 Cloudy with Mist and Fog 42 5.8 42 5.8 100 100 ENE 13 20 30.19 1022 2 3 N/A
9:15 am 09:15 Cloudy with Light Rain 42 5.7 42 5.7 100 100 ENE 16 26 30.18 1022 3 4 N/A
9:35 am 09:35 Cloudy with Mist and Fog 42 5.7 42 5.7 100 100 E 15 24 30.17 1022 2 3 N/A
9:55 am 09:55 Cloudy with Mist and Fog 42 5.7 42 5.7 100 100 ENE 16 26 30.17 1022 1 2 N/A
10:15 am 10:15 Cloudy with Mist and Fog 42 5.8 42 5.8 100 100 ENE 17 28 30.17 1022 2 3 N/A
10:35 am 10:35 Cloudy with Mist and Fog 42 5.8 42 5.8 100 100 ENE 17 28 30.17 1022 3 5 N/A
10:55 am 10:55 Cloudy 43 6 43 6 100 100 ENE 16 26 30.17 1022 7 11 N/A
11:15 am 11:15 Cloudy with Mist and Fog 44 6.5 44 6.5 100 100 E 14 22 30.18 1022 5 8 N/A
11:35 am 11:35 Cloudy with Mist and Fog 43 6.3 43 6.3 100 100 E 13 20 30.19 1022 5 8 N/A
11:55 am 11:55 Cloudy with Mist and Fog 44 6.5 44 6.5 100 100 E 15 24 30.16 1021 3 4 N/A
12:15 pm 12:15 Cloudy with Mist and Fog 44 6.5 44 6.5 100 100 ENE 16 26 30.14 1021 2 2 N/A
12:35 pm 12:35 Cloudy with Mist and Fog 44 6.5 44 6.5 100 100 ENE 15 24 30.15 1021 2 2 N/A
12:55 pm 12:55 Cloudy with Mist and Fog 44 6.5 44 6.5 100 100 ENE 20 31 30.11 1020 1 1 N/A
1:15 pm 13:15 Cloudy with Fog 44 6.7 44 6.7 100 100 NE 20 31 30.10 1019 1 1 N/A
1:35 pm 13:35 Cloudy with Fog 45 7 45 7 100 100 E 15 24 30.10 1019 1 1 N/A
1:55 pm 13:55 Cloudy with Fog 45 7 45 7 100 100 ENE 14 22 30.10 1019 1 1 N/A
2:15 pm 14:15 Cloudy with Fog 45 7.1 45 7.1 100 100 ENE 14 22 30.10 1019 1 1 N/A
2:35 pm 14:35 Cloudy with Fog 45 7.1 45 7.1 100 100 ENE 14 22 30.10 1019 0 0 N/A
2:55 pm 14:55 Cloudy with Fog 45 7.2 45 7.2 100 100 ENE 18 30 30.08 1019 1 1 N/A
3:15 pm 15:15 Cloudy with Fog 45 7.2 45 7.2 100 100 ENE 15 24 30.08 1019 1 1 N/A
3:35 pm 15:35 Cloudy with Light Rain 45 7.2 45 7.2 100 100 NE 12 19 30.09 1019 0 0 N/A
3:55 pm 15:55 Cloudy with Light Rain 45 7.2 45 7.2 100 100 NE 13 20 30.10 1019 0 0 N/A
4:15 pm 16:15 Cloudy with Light Rain 45 7.2 45 7.2 100 100 NE 15 24 30.09 1019 0 0 N/A
4:35 pm 16:35 Cloudy with Light Rain 45 7.3 45 7.3 100 100 ENE 14 22 30.08 1019 0 0 N/A
4:55 pm 16:55 Cloudy with Drizzle 45 7.4 45 7.4 100 100 ENE 15 24 30.07 1018 0 0 N/A
5:15 pm 17:15 Cloudy with Drizzle 46 7.5 46 7.5 100 100 ENE 15 24 30.05 1017 0 0 N/A
5:35 pm 17:35 Cloudy with Light Rain 46 7.8 46 7.8 100 100 ENE 14 22 30.04 1017 1 1 N/A
5:55 pm 17:55 Cloudy with Mist and Fog 46 7.8 46 7.8 100 100 ENE 15 24 30.03 1017 1 2 N/A
6:15 pm 18:15 Cloudy with Mist and Fog 46 8 46 8 100 100 ENE 12 19 30.04 1017 1 2 N/A
6:35 pm 18:35 Cloudy with Light Rain 46 8 46 8 100 100 ENE 12 19 30.04 1017 1 2 N/A
6:55 pm 18:55 Cloudy with Light Rain 47 8.1 47 8.1 100 100 ENE 10 17 30.02 1017 1 2 0.02 0.51
7:15 pm 19:15 Cloudy with Drizzle 47 8.2 47 8.2 100 100 ENE 14 22 30.01 1016 1 2 N/A
7:35 pm 19:35 Cloudy with Mist and Fog 47 8.5 47 8.5 100 100 E 13 20 30.00 1016 1 2 N/A
7:55 pm 19:55 Cloudy with Mist and Fog 47 8.6 47 8.6 100 100 E 10 17 29.99 1015 2 3 N/A
8:15 pm 20:15 Cloudy with Mist and Fog 48 8.8 48 8.8 100 100 E 15 24 29.97 1015 3 4 N/A
8:35 pm 20:35 Cloudy with Mist and Fog 48 9 48 9 100 100 E 13 20 29.97 1015 4 6 N/A
8:55 pm 20:55 Cloudy with Mist and Fog 48 9 48 9 100 100 E 15 24 29.97 1015 3 5 N/A
9:15 pm 21:15 Cloudy with Light Rain 48 9.1 48 9.1 100 100 E 14 22 29.95 1014 3 5 N/A
9:35 pm 21:35 Cloudy with Mist and Fog 49 9.2 49 9.2 100 100 E 15 24 29.94 1014 3 5 N/A
9:55 pm 21:55 Cloudy with Mist and Fog 49 9.3 49 9.3 100 100 E 17 28 29.94 1014 2 3 N/A
10:15 pm 22:15 Cloudy with Light Rain 49 9.3 49 9.3 100 100 E 22 35 29.91 1013 2 2 N/A
10:35 pm 22:35 Cloudy with Light Rain 49 9.5 49 9.5 100 100 E 25 41 29.87 1011 1 1 N/A
10:55 pm 22:55 Cloudy with Mist and Fog 49 9.7 49 9.7 100 100 ESE 17 28 29.90 1012 1 2 N/A
11:15 pm 23:15 Cloudy with Mist and Fog 50 10 50 10 100 100 ESE 10 17 29.90 1013 4 6 N/A
11:35 pm 23:35 Cloudy 50 10.2 50 10.2 100 100 N N/A 29.92 1013 10 16 N/A
11:55 pm 23:55 Cloudy with Mist and Fog 50 10.1 50 10.1 100 100 NE 7 11 29.91 1013 4 6 N/A

Powered by AerisWeather